Location: ???????
(56.2167°N, 38.0500°E)
Time: 14:57:57
(UTC+00:00)

Cosmos 44 Rocket - Pass Details

Date: 19 May 2025
Orbit: 651 x 728 km, 65.1° (Epoch: 21 June)

Event Time Altitude Azimuth Distance (km) Brightness Sun altitude
Rises 22:57:53 0° 311° (NW) 3,018 6.8 -11.3°
Reaches altitude 10° 23:00:16 10° 305° (NW) 2,112 5.9 -11.2°
Maximum altitude 23:04:48 44° 234° (SW) 948 3.6 -10.9°
Drops below altitude 10° 23:09:25 10° 163° (SSE) 2,147 5.4 -10.6°
Enters shadow 23:11:03 - 158° (SSE) 2,763 6.0 -10.5°
